AKDT,Max TemperatureF,Mean TemperatureF,Min TemperatureF,Max Dew PointF,MeanDew PointF,Min DewpointF,Max Humidity, Mean Humidity, Min Humidity, Max Sea Level PressureIn, Mean Sea Level PressureIn, Min Sea Level PressureIn, Max VisibilityMiles, Mean VisibilityMiles, Min VisibilityMiles, Max Wind SpeedMPH, Mean Wind SpeedMPH, Max Gust SpeedMPH,PrecipitationIn, CloudCover, Events, WindDirDegrees
2011-9-1,59,55,51,52,48,46,94,80,63,30.03,29.85,29.71,10,10,5,20,9,28,0.00,8,,170
2011-9-2,57,54,51,52,49,46,94,82,72,30.25,30.19,30.12,10,10,7,18,6,26,0.00,8,,121
2011-9-3,57,55,53,54,50,46,94,81,72,30.17,29.98,29.77,10,7,2,22,14,30,0.00,8,,126
2011-9-4,53,52,51,52,50,46,94,88,77,29.83,29.80,29.77,10,8,0,8,3,,0.00,8,,124
2011-9-5,55,52,50,50,47,45,87,80,72,29.79,29.67,29.52,10,10,7,18,11,28,0.00,8,,99
2011-9-6,59,55,51,55,52,48,94,89,77,29.84,29.65,29.52,10,7,4,29,16,37,0.00,8,,171
2011-9-7,51,50,48,50,48,46,100,92,87,30.08,30.04,29.99,10,7,0,8,5,,0.00,7,,123
2011-9-8,62,55,48,61,52,46,100,92,87,30.11,30.07,30.00,10,6,0,17,2,21,0.00,8,,314
2011-9-9,60,56,53,55,52,48,94,86,72,30.35,30.29,30.15,10,10,10,9,4,,0.00,7,,311
2011-9-10,59,54,48,50,47,46,100,85,67,30.34,30.29,30.22,10,6,0,10,2,,0.00,6,,307
2011-9-11,60,52,44,46,44,41,93,78,52,30.23,30.17,30.08,10,10,5,13,3,,0.00,3,,301
2011-9-12,62,53,44,48,44,41,100,77,52,30.05,29.98,29.94,10,8,0,8,5,,0.00,3,,133
2011-9-13,60,56,53,52,50,48,88,79,72,30.20,30.14,30.04,10,10,9,12,3,,0.00,8,,83
2011-9-14,55,53,51,54,51,48,94,90,77,30.03,29.97,29.90,10,6,0,9,2,,0.00,8,Rain,185
2011-9-15,55,52,46,48,45,43,94,79,67,29.91,29.88,29.85,10,9,3,12,6,,0.00,6,Rain,247
2011-9-16,55,52,48,45,44,41,87,73,58,29.81,29.76,29.73,10,10,10,14,8,,0.00,8,,85
2011-9-17,57,52,48,46,45,43,87,75,59,29.87,29.75,29.53,10,10,10,9,4,,0.00,7,,92
2011-9-18,53,52,50,48,46,43,88,82,67,29.83,29.49,29.27,10,10,9,13,9,17,0.00,8,Rain,90
2011-9-19,57,54,50,46,45,45,87,72,63,30.03,29.96,29.80,10,10,10,24,12,30,0.00,8,Rain,93
2011-9-20,55,53,51,48,47,45,82,79,72,29.63,29.59,29.55,10,9,7,23,19,33,0.00,8,Rain,93
2011-9-21,55,53,51,52,46,43,94,76,67,29.58,29.34,29.03,10,10,7,25,14,38,0.00,8,Rain,107
2011-9-22,53,50,46,45,43,39,87,75,62,29.74,29.57,29.07,10,10,10,20,6,29,0.00,6,,79
2011-9-23,51,48,46,45,44,43,93,82,76,29.76,29.45,28.88,10,7,5,34,19,51,0.00,8,Rain,112
2011-9-24,53,48,44,45,42,39,87,75,62,29.88,29.76,29.53,10,10,10,10,6,,0.00,3,,304
2011-9-25,53,48,42,43,40,37,87,76,62,29.67,29.52,29.37,10,10,10,12,4,16,0.00,4,Rain,75
2011-9-26,51,46,42,43,38,34,87,71,50,29.56,29.26,29.13,10,10,9,17,10,26,0.00,6,Rain,84
2011-9-27,48,46,44,45,43,41,93,87,76,30.00,29.62,29.25,10,9,7,13,5,16,0.00,8,Rain,351
2011-9-28,51,48,46,45,43,41,87,81,71,30.27,30.19,30.09,10,10,10,18,13,25,0.00,8,Rain,109
2011-9-29,50,46,44,45,42,39,93,86,76,30.09,29.71,29.29,10,10,9,14,7,23,0.00,8,Rain,117
2011-9-30,51,48,44,43,40,37,87,76,58,30.01,29.78,29.26,10,10,7,24,11,33,0.00,7,,175